| time (UTC) | temp F | wind direction | speed MPH | gust MPH | rain 1hr in | rain 24hr in | rain mn in | humidity % | barometer mb |
| 20260904213528 | 101 | 167 | 4.0 | 9.0 | 0.00 | 0.00 | 0.00 | 38 | 1011.7 |
| 20260904213025 | 102 | 162 | 3.0 | 6.0 | 0.00 | 0.00 | 0.00 | 38 | 1011.7 |
| 20260904212544 | 102 | 211 | 4.0 | 9.0 | 0.00 | 0.00 | 0.00 | 38 | 1011.7 |
| 20260904212022 | 101 | 195 | 4.0 | 8.0 | 0.00 | 0.00 | 0.00 | 39 | 1011.7 |
| 20260904211521 | 101 | 189 | 3.0 | 6.0 | 0.00 | 0.00 | 0.00 | 39 | 1011.8 |
| 20260904211019 | 101 | 150 | 4.0 | 10.0 | 0.00 | 0.00 | 0.00 | 39 | 1012.0 |
| 20260904210517 | 101 | 187 | 3.0 | 6.0 | 0.00 | 0.00 | 0.00 | 38 | 1012.0 |
| 20260904210035 | 101 | 192 | 3.0 | 7.0 | 0.00 | 0.00 | 0.00 | 39 | 1012.1 |
| 20260904205533 | 100 | 190 | 4.0 | 9.0 | 0.00 | 0.00 | 0.00 | 40 | 1012.3 |
| 20260904205032 | 100 | 129 | 3.0 | 9.0 | 0.00 | 0.00 | 0.00 | 41 | 1012.4 |
| 20260904204530 | 100 | 123 | 3.0 | 9.0 | 0.00 | 0.00 | 0.00 | 41 | 1012.3 |
| 20260904204108 | 100 | 164 | 3.0 | 11.0 | 0.00 | 0.00 | 0.00 | 42 | 1012.4 |
| 20260904203526 | 100 | 181 | 4.0 | 9.0 | 0.00 | 0.00 | 0.00 | 42 | 1012.3 |
| 20260904203024 | 99 | 154 | 3.0 | 10.0 | 0.00 | 0.00 | 0.00 | 42 | 1012.5 |
| 20260904202603 | 99 | 146 | 5.0 | 11.0 | 0.00 | 0.00 | 0.00 | 42 | 1012.6 |
| 20260904202020 | 100 | 122 | 3.0 | 9.0 | 0.00 | 0.00 | 0.00 | 40 | 1012.6 |
| 20260904201519 | 100 | 181 | 4.0 | 12.0 | 0.00 | 0.00 | 0.00 | 41 | 1012.8 |
| 20260904201016 | 100 | 178 | 3.0 | 7.0 | 0.00 | 0.00 | 0.00 | 41 | 1012.9 |
| 20260904200534 | 101 | 193 | 3.0 | 7.0 | 0.00 | 0.00 | 0.00 | 41 | 1012.8 |
| 20260904200033 | 100 | 157 | 3.0 | 13.0 | 0.00 | 0.00 | 0.00 | 42 | 1012.9 |
| 20260904195531 | 100 | 218 | 3.0 | 9.0 | 0.00 | 0.00 | 0.00 | 40 | 1013.0 |
| 20260904195029 | 99 | 222 | 3.0 | 7.0 | 0.00 | 0.00 | 0.00 | 41 | 1013.1 |
| 20260904194527 | 100 | 140 | 4.0 | 8.0 | 0.00 | 0.00 | 0.00 | 41 | 1013.1 |
| 20260904194044 | 100 | 201 | 3.0 | 7.0 | 0.00 | 0.00 | 0.00 | 41 | 1013.2 |
| 20260904193521 | 100 | 176 | 4.0 | 10.0 | 0.00 | 0.00 | 0.00 | 41 | 1013.2 |
| 20260904193120 | 100 | 220 | 3.0 | 8.0 | 0.00 | 0.00 | 0.00 | 41 | 1013.3 |
| 20260904192537 | 100 | 207 | 3.0 | 9.0 | 0.00 | 0.00 | 0.00 | 42 | 1013.4 |
| 20260904192035 | 99 | 159 | 4.0 | 11.0 | 0.00 | 0.00 | 0.00 | 43 | 1013.4 |
| 20260904191553 | 99 | 220 | 4.0 | 9.0 | 0.00 | 0.00 | 0.00 | 43 | 1013.4 |
| 20260904191031 | 99 | 225 | 4.0 | 11.0 | 0.00 | 0.00 | 0.00 | 43 | 1013.5 |
| 20260904190529 | 99 | 207 | 3.0 | 7.0 | 0.00 | 0.00 | 0.00 | 43 | 1013.6 |
| 20260904190027 | 99 | 213 | 3.0 | 8.0 | 0.00 | 0.00 | 0.00 | 43 | 1013.7 |
| 20260904185525 | 98 | 178 | 3.0 | 7.0 | 0.00 | 0.00 | 0.00 | 42 | 1013.8 |
| 20260904185024 | 98 | 195 | 3.0 | 6.0 | 0.00 | 0.00 | 0.00 | 42 | 1013.8 |
| 20260904184521 | 98 | 214 | 4.0 | 12.0 | 0.00 | 0.00 | 0.00 | 41 | 1014.0 |
| 20260904184019 | 98 | 197 | 3.0 | 7.0 | 0.00 | 0.00 | 0.00 | 42 | 1014.2 |
| 20260904183517 | 97 | 200 | 4.0 | 8.0 | 0.00 | 0.00 | 0.00 | 42 | 1014.0 |
| 20260904183016 | 97 | 208 | 3.0 | 8.0 | 0.00 | 0.00 | 0.00 | 46 | 1014.0 |
| 20260904182554 | 96 | 227 | 4.0 | 11.0 | 0.00 | 0.00 | 0.00 | 47 | 1014.0 |
| 20260904182032 | 97 | 213 | 3.0 | 11.0 | 0.00 | 0.00 | 0.00 | 46 | 1014.2 |
| 20260904181530 | 95 | 221 | 4.0 | 12.0 | 0.00 | 0.00 | 0.00 | 48 | 1014.3 |
| 20260904181028 | 96 | 223 | 3.0 | 10.0 | 0.00 | 0.00 | 0.00 | 48 | 1014.3 |
| 20260904180526 | 95 | 196 | 3.0 | 8.0 | 0.00 | 0.00 | 0.00 | 48 | 1014.3 |
| 20260904180024 | 94 | 220 | 3.0 | 7.0 | 0.00 | 0.00 | 0.00 | 48 | 1014.5 |
| 20260904175522 | 94 | 215 | 4.0 | 8.0 | 0.00 | 0.00 | 0.00 | 48 | 1014.5 |
| 20260904175020 | 94 | 158 | 2.0 | 6.0 | 0.00 | 0.00 | 0.00 | 49 | 1014.5 |
| 20260904174518 | 94 | 206 | 3.0 | 6.0 | 0.00 | 0.00 | 0.00 | 48 | 1014.7 |
| 20260904174017 | 94 | 200 | 3.0 | 6.0 | 0.00 | 0.00 | 0.00 | 49 | 1014.6 |
| 20260904173515 | 94 | 170 | 3.0 | 11.0 | 0.00 | 0.00 | 0.00 | 49 | 1014.7 |
| 20260904173033 | 95 | 181 | 3.0 | 9.0 | 0.00 | 0.00 | 0.00 | 47 | 1014.8 |
| 20260904172531 | 95 | 209 | 4.0 | 8.0 | 0.00 | 0.00 | 0.00 | 47 | 1014.8 |
| 20260904172029 | 94 | 215 | 4.0 | 9.0 | 0.00 | 0.00 | 0.00 | 51 | 1014.9 |
| 20260904171527 | 94 | 214 | 3.0 | 11.0 | 0.00 | 0.00 | 0.00 | 51 | 1015.0 |
| 20260904171045 | 93 | 215 | 4.0 | 10.0 | 0.00 | 0.00 | 0.00 | 50 | 1015.1 |
| 20260904170523 | 93 | 214 | 4.0 | 10.0 | 0.00 | 0.00 | 0.00 | 50 | 1015.1 |
| 20260904170024 | 93 | 215 | 4.0 | 13.0 | 0.00 | 0.00 | 0.00 | 50 | 1015.1 |
| 20260904165540 | 92 | 222 | 4.0 | 9.0 | 0.00 | 0.00 | 0.00 | 51 | 1015.1 |
| 20260904165018 | 92 | 201 | 5.0 | 11.0 | 0.00 | 0.00 | 0.00 | 51 | 1015.1 |
| 20260904164516 | 90 | 215 | 2.0 | 8.0 | 0.00 | 0.00 | 0.00 | 54 | 1015.2 |
| 20260904164034 | 90 | 224 | 4.0 | 10.0 | 0.00 | 0.00 | 0.00 | 56 | 1015.3 |
| 20260904163532 | 89 | 222 | 6.0 | 12.0 | 0.00 | 0.00 | 0.00 | 56 | 1015.3 |
| 20260904163031 | 90 | 197 | 3.0 | 9.0 | 0.00 | 0.00 | 0.00 | 56 | 1015.4 |
| 20260904162549 | 89 | 202 | 4.0 | 19.0 | 0.00 | 0.00 | 0.00 | 57 | 1015.4 |
| 20260904162027 | 89 | 222 | 5.0 | 14.0 | 0.00 | 0.00 | 0.00 | 57 | 1015.3 |
| 20260904161525 | 89 | 220 | 5.0 | 13.0 | 0.00 | 0.00 | 0.00 | 58 | 1015.2 |
| 20260904161023 | 90 | 222 | 4.0 | 9.0 | 0.00 | 0.00 | 0.00 | 59 | 1015.1 |
| 20260904160522 | 90 | 220 | 4.0 | 15.0 | 0.00 | 0.00 | 0.00 | 60 | 1015.1 |
| 20260904160019 | 89 | 212 | 3.0 | 7.0 | 0.00 | 0.00 | 0.00 | 61 | 1015.2 |
| 20260904155517 | 88 | 222 | 5.0 | 11.0 | 0.00 | 0.00 | 0.00 | 63 | 1015.2 |
| 20260904155015 | 88 | 216 | 4.0 | 11.0 | 0.00 | 0.00 | 0.00 | 65 | 1015.2 |
| 20260904154534 | 88 | 219 | 5.0 | 12.0 | 0.00 | 0.00 | 0.00 | 66 | 1015.1 |
| 20260904154031 | 87 | 213 | 3.0 | 7.0 | 0.00 | 0.00 | 0.00 | 66 | 1015.1 |
| 20260904153530 | 87 | 222 | 4.0 | 10.0 | 0.00 | 0.00 | 0.00 | 67 | 1015.1 |
| 20260904153027 | 87 | 219 | 3.0 | 13.0 | 0.00 | 0.00 | 0.00 | 67 | 1015.0 |
| 20260904152525 | 86 | 206 | 2.0 | 6.0 | 0.00 | 0.00 | 0.00 | 69 | 1015.1 |
| 20260904152023 | 85 | 216 | 3.0 | 8.0 | 0.00 | 0.00 | 0.00 | 70 | 1015.1 |
| 20260904151520 | 86 | 194 | 3.0 | 7.0 | 0.00 | 0.00 | 0.00 | 70 | 1015.1 |
| 20260904151018 | 85 | 209 | 3.0 | 6.0 | 0.00 | 0.00 | 0.00 | 71 | 1015.2 |
| 20260904150516 | 85 | 217 | 4.0 | 15.0 | 0.00 | 0.00 | 0.00 | 71 | 1015.1 |
| 20260904150054 | 85 | 214 | 3.0 | 10.0 | 0.00 | 0.00 | 0.00 | 71 | 1015.1 |
| 20260904145532 | 85 | 222 | 3.0 | 9.0 | 0.00 | 0.00 | 0.00 | 70 | 1015.1 |
| 20260904145030 | 85 | 183 | 2.0 | 4.0 | 0.00 | 0.00 | 0.00 | 72 | 1014.9 |
| 20260904144529 | 85 | 206 | 2.0 | 6.0 | 0.00 | 0.00 | 0.00 | 73 | 1015.0 |
| 20260904144107 | 84 | 180 | 3.0 | 11.0 | 0.00 | 0.00 | 0.00 | 74 | 1014.9 |
| 20260904143525 | 84 | 183 | 4.0 | 8.0 | 0.00 | 0.00 | 0.00 | 75 | 1014.8 |
| 20260904143023 | 84 | 213 | 3.0 | 7.0 | 0.00 | 0.00 | 0.00 | 75 | 1014.8 |
| 20260904142521 | 84 | 199 | 2.0 | 6.0 | 0.00 | 0.00 | 0.00 | 76 | 1014.8 |
| 20260904142019 | 83 | 172 | 3.0 | 6.0 | 0.00 | 0.00 | 0.00 | 78 | 1014.9 |
| 20260904141517 | 82 | 206 | 2.0 | 6.0 | 0.00 | 0.00 | 0.00 | 80 | 1014.9 |
| 20260904141034 | 82 | 201 | 2.0 | 5.0 | 0.00 | 0.00 | 0.00 | 81 | 1014.8 |
| 20260904140532 | 82 | 163 | 2.0 | 5.0 | 0.00 | 0.00 | 0.00 | 81 | 1014.9 |
| 20260904140030 | 81 | 160 | 3.0 | 6.0 | 0.00 | 0.00 | 0.00 | 82 | 1014.9 |
| 20260904135528 | 80 | 177 | 3.0 | 5.0 | 0.00 | 0.00 | 0.00 | 84 | 1015.0 |
| 20260904135026 | 80 | 170 | 2.0 | 6.0 | 0.00 | 0.00 | 0.00 | 84 | 1014.8 |
| 20260904134524 | 80 | 171 | 2.0 | 6.0 | 0.00 | 0.00 | 0.00 | 84 | 1014.8 |
| 20260904134042 | 80 | 110 | 2.0 | 6.0 | 0.00 | 0.00 | 0.00 | 84 | 1014.8 |
| 20260904133519 | 80 | 162 | 2.0 | 6.0 | 0.00 | 0.00 | 0.00 | 84 | 1014.7 |
| 20260904133018 | 80 | 172 | 3.0 | 6.0 | 0.00 | 0.00 | 0.00 | 85 | 1014.6 |
| 20260904132515 | 80 | 186 | 3.0 | 6.0 | 0.00 | 0.00 | 0.00 | 85 | 1014.5 |
| 20260904132034 | 80 | 165 | 2.0 | 5.0 | 0.00 | 0.00 | 0.00 | 85 | 1014.5 |
| 20260904131532 | 79 | 189 | 2.0 | 6.0 | 0.00 | 0.00 | 0.00 | 85 | 1014.5 |
| 20260904131030 | 79 | 176 | 2.0 | 5.0 | 0.00 | 0.00 | 0.00 | 85 | 1014.4 |
| 20260904130528 | 79 | 155 | 2.0 | 6.0 | 0.00 | 0.00 | 0.00 | 85 | 1014.4 |
| 20260904130025 | 79 | 173 | 2.0 | 4.0 | 0.00 | 0.00 | 0.00 | 85 | 1014.3 |
| 20260904125543 | 79 | 197 | 2.0 | 4.0 | 0.00 | 0.00 | 0.00 | 85 | 1014.3 |
| 20260904125021 | 79 | 142 | 2.0 | 4.0 | 0.00 | 0.00 | 0.00 | 84 | 1014.1 |
| 20260904124519 | 79 | 136 | 2.0 | 4.0 | 0.00 | 0.00 | 0.00 | 84 | 1014.1 |
| 20260904124017 | 79 | 198 | 1.0 | 4.0 | 0.00 | 0.00 | 0.00 | 84 | 1014.1 |
| 20260904123535 | 79 | 185 | 2.0 | 4.0 | 0.00 | 0.00 | 0.00 | 84 | 1014.1 |
| 20260904123033 | 79 | 167 | 2.0 | 5.0 | 0.00 | 0.00 | 0.00 | 84 | 1014.0 |
| 20260904122551 | 79 | 177 | 2.0 | 4.0 | 0.00 | 0.00 | 0.00 | 84 | 1014.1 |
| 20260904122029 | 79 | 167 | 2.0 | 4.0 | 0.00 | 0.00 | 0.00 | 85 | 1014.1 |
| 20260904121527 | 79 | 150 | 3.0 | 6.0 | 0.00 | 0.00 | 0.00 | 85 | 1013.9 |
| 20260904121025 | 79 | 174 | 2.0 | 6.0 | 0.00 | 0.00 | 0.00 | 85 | 1013.9 |
| 20260904120523 | 79 | 128 | 1.0 | 4.0 | 0.00 | 0.00 | 0.00 | 85 | 1013.9 |
| 20260904120021 | 79 | 43 | 1.0 | 2.0 | 0.00 | 0.00 | 0.00 | 85 | 1013.7 |
| 20260904115519 | 79 | 136 | 2.0 | 5.0 | 0.00 | 0.00 | 0.00 | 84 | 1013.8 |
| 20260904115017 | 79 | 154 | 2.0 | 4.0 | 0.00 | 0.00 | 0.00 | 84 | 1013.8 |
| 20260904114515 | 79 | 142 | 2.0 | 5.0 | 0.00 | 0.00 | 0.00 | 84 | 1013.7 |
| 20260904114034 | 79 | 174 | 2.0 | 4.0 | 0.00 | 0.00 | 0.00 | 84 | 1013.7 |
| 20260904113532 | 79 | 177 | 1.0 | 3.0 | 0.00 | 0.00 | 0.00 | 84 | 1013.6 |
| 20260904113030 | 79 | 177 | 3.0 | 5.0 | 0.00 | 0.00 | 0.00 | 84 | 1013.7 |
| 20260904112528 | 79 | 170 | 2.0 | 4.0 | 0.00 | 0.00 | 0.00 | 84 | 1013.5 |
| 20260904112046 | 79 | 191 | 1.0 | 5.0 | 0.00 | 0.00 | 0.00 | 84 | 1013.5 |
| 20260904111525 | 79 | 177 | 2.0 | 5.0 | 0.00 | 0.00 | 0.00 | 84 | 1013.4 |
| 20260904111023 | 79 | 207 | 2.0 | 5.0 | 0.00 | 0.00 | 0.00 | 84 | 1013.5 |
| 20260904110520 | 79 | 10 | 2.0 | 4.0 | 0.00 | 0.00 | 0.00 | 84 | 1013.5 |
| 20260904110019 | 79 | 357 | 2.0 | 4.0 | 0.00 | 0.00 | 0.00 | 84 | 1013.5 |
| 20260904105517 | 79 | 146 | 2.0 | 5.0 | 0.00 | 0.00 | 0.00 | 84 | 1013.6 |
| 20260904105015 | 79 | 192 | 1.0 | 4.0 | 0.00 | 0.00 | 0.00 | 84 | 1013.5 |
| 20260904104533 | 79 | 189 | 2.0 | 4.0 | 0.00 | 0.00 | 0.00 | 84 | 1013.5 |
| 20260904104031 | 79 | 160 | 1.0 | 6.0 | 0.00 | 0.00 | 0.00 | 84 | 1013.5 |
| 20260904103530 | 79 | 177 | 2.0 | 5.0 | 0.00 | 0.00 | 0.00 | 84 | 1013.6 |
| 20260904103028 | 79 | 194 | 1.0 | 3.0 | 0.00 | 0.00 | 0.00 | 85 | 1013.6 |
| 20260904102527 | 79 | 184 | 1.0 | 3.0 | 0.00 | 0.00 | 0.00 | 85 | 1013.4 |
| 20260904102024 | 79 | 161 | 2.0 | 4.0 | 0.00 | 0.00 | 0.00 | 85 | 1013.3 |
| 20260904101523 | 79 | 164 | 2.0 | 6.0 | 0.00 | 0.00 | 0.00 | 84 | 1013.2 |
| 20260904101021 | 79 | 179 | 1.0 | 4.0 | 0.00 | 0.00 | 0.00 | 84 | 1013.4 |
| 20260904100520 | 79 | 193 | 2.0 | 4.0 | 0.00 | 0.00 | 0.00 | 84 | 1013.2 |
| 20260904100038 | 79 | 196 | 2.0 | 5.0 | 0.00 | 0.00 | 0.00 | 84 | 1013.2 |
| 20260904095516 | 79 | 181 | 2.0 | 4.0 | 0.00 | 0.00 | 0.00 | 84 | 1013.2 |
| 20260904095034 | 79 | 173 | 3.0 | 5.0 | 0.00 | 0.00 | 0.00 | 84 | 1013.3 |
| 20260904094533 | 79 | 181 | 2.0 | 7.0 | 0.00 | 0.00 | 0.00 | 84 | 1013.2 |
| 20260904094032 | 79 | 163 | 2.0 | 4.0 | 0.00 | 0.00 | 0.00 | 84 | 1013.2 |
| 20260904093530 | 79 | 171 | 2.0 | 4.0 | 0.00 | 0.00 | 0.00 | 85 | 1013.1 |
| 20260904093028 | 79 | 167 | 2.0 | 5.0 | 0.00 | 0.00 | 0.00 | 85 | 1013.3 |
| 20260904092607 | 79 | 186 | 2.0 | 6.0 | 0.00 | 0.00 | 0.00 | 85 | 1013.2 |
| 20260904092025 | 79 | 188 | 2.0 | 4.0 | 0.00 | 0.00 | 0.00 | 84 | 1013.3 |
| 20260904091523 | 79 | 189 | 2.0 | 5.0 | 0.00 | 0.00 | 0.00 | 84 | 1013.4 |
| 20260904091021 | 79 | 166 | 3.0 | 6.0 | 0.00 | 0.00 | 0.00 | 83 | 1013.3 |
| 20260904090520 | 79 | 189 | 2.0 | 5.0 | 0.00 | 0.00 | 0.00 | 83 | 1013.0 |
| 20260904090018 | 79 | 190 | 2.0 | 5.0 | 0.00 | 0.00 | 0.00 | 83 | 1013.1 |
| 20260904085516 | 79 | 197 | 2.0 | 4.0 | 0.00 | 0.00 | 0.00 | 82 | 1013.1 |
| 20260904085055 | 79 | 182 | 2.0 | 5.0 | 0.00 | 0.00 | 0.00 | 82 | 1013.1 |
| 20260904084553 | 79 | 186 | 2.0 | 5.0 | 0.00 | 0.00 | 0.00 | 82 | 1013.0 |
| 20260904084031 | 79 | 206 | 2.0 | 4.0 | 0.00 | 0.00 | 0.00 | 82 | 1013.1 |
| 20260904083530 | 79 | 188 | 2.0 | 5.0 | 0.00 | 0.00 | 0.00 | 82 | 1013.2 |
| 20260904083028 | 79 | 193 | 2.0 | 5.0 | 0.00 | 0.00 | 0.00 | 82 | 1013.2 |
| 20260904082526 | 79 | 182 | 2.0 | 4.0 | 0.00 | 0.00 | 0.00 | 82 | 1013.1 |
| 20260904082025 | 79 | 190 | 1.0 | 4.0 | 0.00 | 0.00 | 0.00 | 82 | 1013.1 |
| 20260904081523 | 79 | 211 | 2.0 | 4.0 | 0.00 | 0.00 | 0.00 | 82 | 1013.1 |
| 20260904081022 | 80 | 196 | 2.0 | 5.0 | 0.00 | 0.00 | 0.00 | 81 | 1013.1 |
| 20260904080520 | 80 | 192 | 2.0 | 4.0 | 0.00 | 0.00 | 0.00 | 81 | 1013.0 |
| 20260904080038 | 80 | 205 | 2.0 | 5.0 | 0.00 | 0.00 | 0.00 | 81 | 1013.1 |
| 20260904075536 | 80 | 218 | 2.0 | 4.0 | 0.00 | 0.00 | 0.00 | 81 | 1013.1 |
| 20260904063527 | 80 | 191 | 3.0 | 5.0 | 0.00 | 0.00 | 0.00 | 77 | 1013.3 |
| 20260904060515 | 81 | 163 | 2.0 | 6.0 | 0.00 | 0.00 | 0.00 | 75 | 1013.6 |
| 20260904060033 | 81 | 191 | 3.0 | 7.0 | 0.00 | 0.00 | 0.00 | 75 | 1013.6 |
| 20260904055532 | 81 | 175 | 3.0 | 6.0 | 0.00 | 0.00 | 0.00 | 74 | 1013.5 |
| 20260904055030 | 81 | 194 | 3.0 | 7.0 | 0.00 | 0.00 | 0.00 | 74 | 1013.7 |
| 20260904054528 | 81 | 200 | 4.0 | 8.0 | 0.00 | 0.00 | 0.00 | 73 | 1013.6 |
| 20260904054027 | 81 | 204 | 3.0 | 7.0 | 0.00 | 0.00 | 0.00 | 72 | 1013.5 |
| 20260904053546 | 81 | 212 | 2.0 | 6.0 | 0.00 | 0.00 | 0.00 | 71 | 1013.5 |
| 20260904053024 | 81 | 186 | 3.0 | 7.0 | 0.00 | 0.00 | 0.00 | 71 | 1013.4 |
| 20260904052522 | 82 | 170 | 3.0 | 8.0 | 0.00 | 0.00 | 0.00 | 71 | 1013.3 |
| 20260904052020 | 82 | 176 | 4.0 | 13.0 | 0.00 | 0.00 | 0.00 | 70 | 1013.2 |
| 20260904051518 | 82 | 160 | 3.0 | 7.0 | 0.00 | 0.00 | 0.00 | 69 | 1013.2 |
| 20260904051016 | 82 | 179 | 3.0 | 7.0 | 0.00 | 0.00 | 0.00 | 69 | 1013.2 |
| 20260904050535 | 82 | 186 | 3.0 | 9.0 | 0.00 | 0.00 | 0.00 | 68 | 1013.3 |
| 20260904050113 | 82 | 187 | 3.0 | 6.0 | 0.00 | 0.00 | 0.00 | 68 | 1013.3 |
| 20260904045531 | 82 | 170 | 3.0 | 6.0 | 0.00 | 0.00 | 0.00 | 68 | 1013.3 |
| 20260904045029 | 82 | 192 | 3.0 | 7.0 | 0.00 | 0.00 | 0.00 | 68 | 1013.3 |
| 20260904044527 | 82 | 175 | 3.0 | 7.0 | 0.00 | 0.00 | 0.00 | 68 | 1013.3 |
| 20260904044026 | 82 | 136 | 2.0 | 7.0 | 0.00 | 0.00 | 0.00 | 68 | 1013.5 |
| 20260904043523 | 82 | 144 | 2.0 | 5.0 | 0.00 | 0.00 | 0.00 | 68 | 1013.5 |
| 20260904043042 | 82 | 144 | 2.0 | 6.0 | 0.00 | 0.00 | 0.00 | 68 | 1013.4 |
| 20260904042520 | 82 | 183 | 2.0 | 5.0 | 0.00 | 0.00 | 0.00 | 68 | 1013.5 |
| 20260904042018 | 82 | 143 | 3.0 | 9.0 | 0.00 | 0.00 | 0.00 | 68 | 1013.3 |
| 20260904041516 | 82 | 161 | 3.0 | 6.0 | 0.00 | 0.00 | 0.00 | 68 | 1013.4 |
| 20260904041035 | 82 | 173 | 3.0 | 6.0 | 0.00 | 0.00 | 0.00 | 69 | 1013.3 |
| 20260904040553 | 82 | 151 | 2.0 | 7.0 | 0.00 | 0.00 | 0.00 | 69 | 1013.5 |
| 20260904040031 | 83 | 141 | 3.0 | 9.0 | 0.00 | 0.00 | 0.00 | 69 | 1013.6 |
| 20260904035610 | 83 | 160 | 2.0 | 7.0 | 0.00 | 0.00 | 0.00 | 69 | 1013.6 |
| 20260904035028 | 83 | 164 | 3.0 | 9.0 | 0.00 | 0.00 | 0.00 | 69 | 1013.5 |
| 20260904034527 | 83 | 148 | 3.0 | 7.0 | 0.00 | 0.00 | 0.00 | 69 | 1013.4 |
| 20260904034045 | 83 | 157 | 3.0 | 9.0 | 0.00 | 0.00 | 0.00 | 69 | 1013.4 |
| 20260904033524 | 83 | 154 | 3.0 | 10.0 | 0.00 | 0.00 | 0.00 | 69 | 1013.4 |
| 20260904033022 | 83 | 127 | 4.0 | 9.0 | 0.00 | 0.00 | 0.00 | 69 | 1013.2 |
| 20260904032520 | 84 | 133 | 3.0 | 6.0 | 0.00 | 0.00 | 0.00 | 67 | 1013.2 |
| 20260904032018 | 84 | 164 | 3.0 | 7.0 | 0.00 | 0.00 | 0.00 | 66 | 1013.3 |
| 20260904031517 | 84 | 168 | 3.0 | 11.0 | 0.00 | 0.00 | 0.00 | 66 | 1013.2 |
| 20260904031034 | 84 | 129 | 4.0 | 9.0 | 0.00 | 0.00 | 0.00 | 67 | 1013.2 |
| 20260904030532 | 84 | 140 | 3.0 | 8.0 | 0.00 | 0.00 | 0.00 | 67 | 1013.3 |
| 20260904030031 | 84 | 145 | 3.0 | 6.0 | 0.00 | 0.00 | 0.00 | 67 | 1013.2 |
| 20260904025528 | 84 | 193 | 2.0 | 6.0 | 0.00 | 0.00 | 0.00 | 67 | 1013.0 |
| 20260904025026 | 84 | 142 | 3.0 | 6.0 | 0.00 | 0.00 | 0.00 | 67 | 1013.2 |
| 20260904024524 | 84 | 169 | 3.0 | 8.0 | 0.00 | 0.00 | 0.00 | 68 | 1013.1 |
| 20260904024021 | 84 | 150 | 3.0 | 9.0 | 0.00 | 0.00 | 0.00 | 69 | 1013.0 |
| 20260904023519 | 84 | 136 | 3.0 | 7.0 | 0.00 | 0.00 | 0.00 | 70 | 1013.0 |
| 20260904023018 | 84 | 130 | 4.0 | 11.0 | 0.00 | 0.00 | 0.00 | 70 | 1012.9 |
| 20260904022515 | 84 | 158 | 5.0 | 11.0 | 0.00 | 0.00 | 0.00 | 70 | 1012.8 |
| 20260904022033 | 85 | 123 | 5.0 | 11.0 | 0.00 | 0.00 | 0.00 | 69 | 1012.7 |
| 20260904021531 | 85 | 135 | 4.0 | 9.0 | 0.00 | 0.00 | 0.00 | 68 | 1012.6 |
| 20260904021029 | 85 | 142 | 4.0 | 13.0 | 0.00 | 0.00 | 0.00 | 67 | 1012.4 |
| 20260904020529 | 86 | 167 | 3.0 | 10.0 | 0.00 | 0.00 | 0.00 | 63 | 1012.4 |
| 20260904020025 | 86 | 188 | 3.0 | 8.0 | 0.00 | 0.00 | 0.00 | 61 | 1012.3 |
| 20260904015523 | 86 | 167 | 3.0 | 7.0 | 0.00 | 0.00 | 0.00 | 60 | 1012.2 |
| 20260904015020 | 86 | 151 | 4.0 | 9.0 | 0.00 | 0.00 | 0.00 | 60 | 1012.1 |
| 20260904014539 | 86 | 173 | 3.0 | 8.0 | 0.00 | 0.00 | 0.00 | 60 | 1012.0 |
| 20260904014017 | 86 | 162 | 3.0 | 5.0 | 0.00 | 0.00 | 0.00 | 61 | 1012.0 |
| 20260904013535 | 86 | 154 | 2.0 | 5.0 | 0.00 | 0.00 | 0.00 | 61 | 1011.8 |
| 20260904013033 | 87 | 167 | 3.0 | 8.0 | 0.00 | 0.00 | 0.00 | 61 | 1011.7 |
| 20260904012531 | 87 | 138 | 3.0 | 7.0 | 0.00 | 0.00 | 0.00 | 61 | 1011.7 |
| 20260904012029 | 87 | 125 | 4.0 | 10.0 | 0.00 | 0.00 | 0.00 | 62 | 1011.4 |
| 20260904011547 | 87 | 142 | 4.0 | 12.0 | 0.00 | 0.00 | 0.00 | 62 | 1011.5 |
| 20260904011025 | 87 | 131 | 4.0 | 10.0 | 0.00 | 0.00 | 0.00 | 61 | 1011.5 |
| 20260904010523 | 87 | 155 | 3.0 | 8.0 | 0.00 | 0.00 | 0.00 | 61 | 1011.5 |
| 20260904010021 | 87 | 161 | 3.0 | 10.0 | 0.00 | 0.00 | 0.00 | 61 | 1011.5 |
| 20260904005519 | 88 | 161 | 3.0 | 9.0 | 0.00 | 0.00 | 0.00 | 61 | 1011.3 |
| 20260904005017 | 88 | 158 | 4.0 | 10.0 | 0.00 | 0.00 | 0.00 | 60 | 1011.3 |
| 20260904004515 | 88 | 145 | 3.0 | 9.0 | 0.00 | 0.00 | 0.00 | 60 | 1011.4 |
| 20260904004033 | 88 | 172 | 4.0 | 8.0 | 0.00 | 0.00 | 0.00 | 60 | 1011.3 |
| 20260904003532 | 89 | 138 | 3.0 | 11.0 | 0.00 | 0.00 | 0.00 | 60 | 1011.4 |
| 20260904003029 | 89 | 183 | 3.0 | 7.0 | 0.00 | 0.00 | 0.00 | 59 | 1011.4 |
| 20260904002528 | 89 | 153 | 4.0 | 9.0 | 0.00 | 0.00 | 0.00 | 59 | 1011.3 |
| 20260904002026 | 89 | 154 | 5.0 | 15.0 | 0.00 | 0.00 | 0.00 | 59 | 1011.3 |
| 20260904001524 | 90 | 197 | 3.0 | 7.0 | 0.00 | 0.00 | 0.00 | 59 | 1011.4 |
| 20260904001022 | 89 | 146 | 3.0 | 8.0 | 0.00 | 0.00 | 0.00 | 59 | 1011.3 |
| 20260904000521 | 90 | 144 | 5.0 | 11.0 | 0.00 | 0.00 | 0.00 | 59 | 1011.3 |
| 20260904000020 | 90 | 136 | 4.0 | 14.0 | 0.00 | 0.00 | 0.00 | 58 | 1011.3 |
| 20260903235518 | 90 | 160 | 4.0 | 10.0 | 0.00 | 0.00 | 0.00 | 58 | 1011.3 |
| 20260903235016 | 91 | 159 | 4.0 | 14.0 | 0.00 | 0.00 | 0.00 | 58 | 1011.2 |
| 20260903234535 | 91 | 140 | 4.0 | 11.0 | 0.00 | 0.00 | 0.00 | 58 | 1011.1 |
| 20260903234032 | 91 | 155 | 5.0 | 12.0 | 0.00 | 0.00 | 0.00 | 57 | 1011.0 |
| 20260903233531 | 92 | 130 | 4.0 | 10.0 | 0.00 | 0.00 | 0.00 | 57 | 1011.0 |
| 20260903233029 | 92 | 132 | 4.0 | 9.0 | 0.00 | 0.00 | 0.00 | 57 | 1010.8 |
| 20260903232527 | 91 | 137 | 4.0 | 14.0 | 0.00 | 0.00 | 0.00 | 58 | 1010.8 |
| 20260903232025 | 92 | 132 | 6.0 | 13.0 | 0.00 | 0.00 | 0.00 | 57 | 1010.6 |
| 20260903231522 | 93 | 167 | 4.0 | 9.0 | 0.00 | 0.00 | 0.00 | 55 | 1010.5 |
| 20260903231020 | 94 | 168 | 4.0 | 12.0 | 0.00 | 0.00 | 0.00 | 55 | 1010.6 |
| 20260903230517 | 93 | 190 | 3.0 | 5.0 | 0.00 | 0.00 | 0.00 | 55 | 1010.7 |
| 20260903230016 | 93 | 165 | 3.0 | 6.0 | 0.00 | 0.00 | 0.00 | 56 | 1010.8 |
| 20260903225533 | 92 | 197 | 3.0 | 6.0 | 0.00 | 0.00 | 0.00 | 56 | 1010.8 |
| 20260903225052 | 92 | 178 | 3.0 | 6.0 | 0.00 | 0.00 | 0.00 | 57 | 1010.8 |
| 20260903224530 | 92 | 192 | 3.0 | 8.0 | 0.00 | 0.00 | 0.00 | 57 | 1010.9 |
| 20260903224108 | 92 | 152 | 4.0 | 12.0 | 0.00 | 0.00 | 0.00 | 57 | 1010.8 |
| 20260903223526 | 92 | 161 | 2.0 | 6.0 | 0.00 | 0.00 | 0.00 | 57 | 1010.8 |
| 20260903223024 | 92 | 168 | 3.0 | 11.0 | 0.00 | 0.00 | 0.00 | 57 | 1011.0 |
| 20260903222522 | 91 | 157 | 4.0 | 11.0 | 0.00 | 0.00 | 0.00 | 57 | 1010.9 |
| 20260903222020 | 92 | 128 | 3.0 | 9.0 | 0.00 | 0.00 | 0.00 | 58 | 1011.0 |
| 20260903221518 | 92 | 157 | 3.0 | 8.0 | 0.00 | 0.00 | 0.00 | 58 | 1010.9 |
| 20260903221015 | 92 | 152 | 4.0 | 11.0 | 0.00 | 0.00 | 0.00 | 58 | 1011.0 |
| 20260903220533 | 92 | 126 | 4.0 | 10.0 | 0.00 | 0.00 | 0.00 | 58 | 1010.9 |
| 20260903220031 | 92 | 198 | 3.0 | 6.0 | 0.00 | 0.00 | 0.00 | 57 | 1010.8 |
| 20260903215528 | 93 | 182 | 4.0 | 9.0 | 0.00 | 0.00 | 0.00 | 57 | 1011.0 |
| 20260903215026 | 93 | 167 | 4.0 | 10.0 | 0.00 | 0.00 | 0.00 | 57 | 1011.0 |
| 20260903214524 | 94 | 150 | 3.0 | 7.0 | 0.00 | 0.00 | 0.00 | 55 | 1011.0 |